[[{"header":{"parameterUnit":"m.s-1","parameterCategory":1,"la1":30.2991,"la2":30.254,"lo1":-89.0895,"lo2":-89.0444,"dy":0.0017,"dx":0.0017,"nx":28,"ny":28,"refTime":"2023-07-20T21:00:00:Z","depth":0,"parameterNumber":2,"parameterNumberName":"U-component_of_WINDS"},"data":[0,0,0,0,0,0,0,0,0,0,0,0,0,0,0,0,0,0,0,0,0,0,0,0,0,0,0,0,0,0,0,0,0,0,0,0,0,0,0,0,0,0,0,0,0,0,0,0,0,0,0,0,0,0,0,0,0,0,4.5725,4.5725,0,4.5736,4.5737,4.5737,4.5626,4.5623,4.5619,4.5617,4.563,4.5633,4.5636,0,0,0,0,0,0,0,0,0,0,0,0,0,4.5607,4.5609,4.5725,4.5725,4.5725,4.5736,4.5737,4.5737,4.5626,4.5622,4.5619,4.5615,4.5629,4.5633,4.5636,0,0,0,0,0,0,0,0,0,0,0,0,0,4.5642,4.561,4.5725,4.5671,4.5667,4.5736,4.5737,4.5737,4.5627,4.5622,4.5618,4.5613,4.5628,4.5632,4.5637,4.5759,0,0,4.5652,4.5654,0,0,0,0,0,0,0,0,4.564,4.5647,4.5679,4.5675,4.567,4.5675,4.5699,4.5744,4.5628,4.5642,4.5617,4.5611,4.5649,4.5651,4.5664,4.576,4.576,4.5652,4.5655,4.5657,4.5659,0,0,0,0,0,0,0,4.5638,4.5645,4.5729,4.568,4.5674,4.5646,4.5646,4.5708,4.5671,4.5641,4.5632,4.5635,4.5645,4.5659,4.5663,4.576,4.5652,4.5656,4.5659,4.5661,4.5953,4.5957,0,0,0,0,0,0,4.5643,4.5644,4.5729,4.573,4.5643,4.5652,4.5652,4.5678,4.567,4.5664,4.5639,4.563,4.5653,4.5658,4.5663,4.5802,4.5657,4.5662,4.5664,4.5948,4.5954,4.5959,0,0,0,0,0,0,4.5641,4.5651,4.5729,4.5685,4.5692,4.5659,4.5689,4.5681,4.5694,4.5669,4.5662,4.566,4.565,4.5657,4.5735,4.5801,4.5664,4.5668,4.5942,4.595,4.5956,4.6083,0,0,0,0,0,0,4.5638,4.5651,4.5698,4.5687,4.5695,4.5801,4.5693,4.5684,4.5703,4.5691,4.5687,4.5682,4.5647,4.5728,4.574,4.5805,4.5672,4.5936,4.5945,4.5954,4.6072,4.6093,4.6111,0,0,0,0,0,4.5634,4.5734,4.57,4.5711,4.5752,4.5805,4.5809,4.5767,4.5709,4.5754,4.5738,4.5682,4.5793,4.5737,4.5749,4.5817,4.5931,4.5943,4.5953,4.6064,4.6089,4.6111,0,0,0,0,0,0,4.5755,4.5732,4.5694,4.5794,4.5802,4.5786,4.5842,4.5796,4.5821,4.5809,4.5755,4.5755,4.5842,4.5838,4.5776,4.5933,4.5852,4.5866,4.5932,4.5956,4.5975,4.5972,4.5676,0,0,0,0,0,4.5793,4.5837,4.5815,4.5905,4.5911,4.5876,4.5897,4.5863,4.587,4.5873,4.5862,4.587,4.5906,4.5931,4.5964,4.6072,4.6068,4.6125,4.6144,4.616,4.6172,4.6225,4.6249,4.5995,4.5995,4.5994,0,0,4.5873,4.5865,4.5897,4.5929,4.5931,4.5977,4.588,4.5934,4.5966,4.5881,4.5953,4.5946,4.5951,4.6044,4.6085,4.6044,4.6241,4.6174,4.6187,4.619,4.6239,4.6263,4.6284,4.6002,4.6001,4.6,0,0,4.604,4.6041,4.6113,4.6117,4.6121,4.6096,4.6114,4.6105,4.6096,4.6167,4.6103,4.6142,4.6207,4.6212,4.6223,4.6391,4.6339,4.6403,4.6503,4.6556,4.6576,4.6593,4.6649,4.667,4.6415,4.6416,4.6416,0,4.6138,4.6204,4.6157,4.6213,4.6228,4.6152,4.6224,4.6231,4.6246,4.6257,4.6211,4.6288,4.6287,4.6378,4.6418,4.6432,4.6448,4.6402,4.6577,4.6594,4.6609,4.6662,4.6684,4.6423,4.6422,4.6421,4.6421,0,4.6323,4.637,4.6428,4.6442,4.6464,4.6529,4.649,4.6518,4.6482,4.6463,4.6535,4.6531,4.6559,4.6579,4.6546,4.6665,4.6639,4.6586,4.6503,4.6642,4.669,4.671,4.6434,4.6431,4.6429,4.6427,0,0,4.6566,4.6551,4.6573,4.6576,4.6574,4.6609,4.667,4.6696,4.672,4.6733,4.678,4.6836,4.6786,4.6799,4.6765,4.6812,4.694,4.6753,4.6752,4.6784,4.7067,4.7104,4.7128,4.6907,4.6911,4.6914,4.7065,0,4.6725,4.6826,4.6784,4.6889,4.6929,4.6857,4.6909,4.6913,4.6897,4.6929,4.6911,4.6949,4.6883,4.689,4.6933,4.6915,4.6995,4.6904,4.6949,4.6951,4.6945,4.7154,4.7193,4.7336,4.7084,4.7087,4.709,0,4.6925,4.6943,4.7051,4.7038,4.7053,4.7101,4.712,4.7153,4.7155,4.714,4.7153,4.7109,4.7166,4.7086,4.7163,4.7102,4.7118,4.7112,4.7116,4.7116,4.7026,4.7155,4.7381,4.7401,4.712,4.7117,4.7115,0,4.7085,4.7138,4.7208,4.7214,4.7202,4.7236,4.7233,4.7231,4.7249,4.7266,4.7276,4.7301,4.7314,4.7334,4.7297,4.7242,4.7378,4.7295,4.7364,4.7365,4.7393,4.7391,4.7621,4.7411,4.741,4.741,4.7409,0,4.7265,4.7333,4.7279,4.7322,4.7395,4.7347,4.7421,4.741,4.7408,4.7447,4.7388,4.7426,4.7376,4.7409,4.7381,4.7446,4.7454,4.7442,4.7432,4.7444,4.7446,4.7452,4.7439,4.7415,4.7414,4.7413,4.7412,0,4.7456,4.7423,4.7494,4.7476,4.7473,4.7528,4.7512,4.7551,4.753,4.7579,4.7588,4.7556,4.7591,4.7557,4.7591,4.7572,4.7659,4.7638,4.7657,4.7649,4.7719,4.7711,4.7957,4.7985,4.7761,4.7764,4.7765,0,4.7572,4.7621,4.7608,4.7629,4.7629,4.7664,4.768,4.7635,4.7655,4.766,4.7697,4.7727,4.7748,4.7808,4.7788,4.7813,4.7789,4.7874,4.7792,4.7802,4.7785,4.7781,4.7784,4.7889,4.7892,4.7894,4.7896,0,4.7778,4.7758,4.7784,4.7804,4.7824,4.7838,4.7848,4.7869,4.7821,4.7846,4.788,4.7897,4.793,4.796,4.7978,4.7975,4.7927,4.7922,4.7938,4.7949,4.7956,4.7949,4.7698,4.7915,4.7914,4.7912,4.7911,4.791,4.7931,4.7971,4.7966,4.7996,4.7998,4.8007,4.8041,4.8023,4.8051,4.8073,4.8045,4.8087,4.8086,4.8105,4.8107,4.8139,4.8103,4.8128,4.8134,4.814,4.8148,4.7955,4.8143,4.8142,4.8142,4.8141,4.8141,0,4.813,4.8123,4.8152,4.8165,4.8188,4.8141,4.8148,4.817,4.8207,4.821,4.8231,4.8269,4.8298,4.8279,4.8302,4.8331,4.8309,4.8338,4.8334,4.8333,4.8181,4.8162,4.8355,4.8355,4.8355,4.8355,4.8355,4.8355,4.8236,4.8299,4.8279,4.8341,4.8334,4.8373,4.838,4.8388,4.8389,4.8434,4.8456,4.8444,4.8438,4.846,4.8483,4.8477,4.8486,4.8523,4.8508,4.8366,4.8344,4.8324,4.8306,4.8526,4.8526,4.8657,4.8658,4.8659]},{"header":{"parameterUnit":"m.s-1","parameterCategory":1,"la1":30.2991,"la2":30.254,"lo1":-89.0895,"lo2":-89.0444,"dy":0.0017,"dx":0.0017,"nx":28,"ny":28,"refTime":"2023-07-20T21:00:00:Z","depth":0,"parameterNumber":3,"parameterNumberName":"V-component_of_WINDS"},"data":[0,0,0,0,0,0,0,0,0,0,0,0,0,0,0,0,0,0,0,0,0,0,0,0,0,0,0,0,0,0,0,0,0,0,0,0,0,0,0,0,0,0,0,0,0,0,0,0,0,0,0,0,0,0,0,0,0,0,4.2176,4.2177,0,4.2295,4.2297,4.2298,4.2287,4.2285,4.2283,4.2281,4.2401,4.2405,4.241,0,0,0,0,0,0,0,0,0,0,0,0,0,4.1933,4.1938,4.2176,4.2177,4.2179,4.2295,4.2297,4.2298,4.2287,4.2285,4.2283,4.2281,4.2399,4.2405,4.2411,0,0,0,0,0,0,0,0,0,0,0,0,0,4.2044,4.1939,4.2176,4.2187,4.2189,4.2295,4.2297,4.2299,4.2288,4.2285,4.2282,4.2279,4.2397,4.2404,4.2411,4.2512,0,0,4.2434,4.2437,0,0,0,0,0,0,0,0,4.2038,4.2053,4.2184,4.2187,4.2189,4.2273,4.2255,4.237,4.2288,4.225,4.2281,4.2278,4.236,4.237,4.2399,4.2517,4.2523,4.2434,4.2439,4.2442,4.2444,0,0,0,0,0,0,0,4.203,4.2048,4.2223,4.2186,4.2189,4.2185,4.2198,4.2277,4.2319,4.2253,4.2253,4.2267,4.2361,4.2392,4.2402,4.2524,4.2434,4.2441,4.2445,4.2448,4.2729,4.2732,0,0,0,0,0,0,4.202,4.2042,4.2219,4.2227,4.2105,4.2192,4.2206,4.2249,4.2318,4.2326,4.227,4.2266,4.2381,4.2393,4.2406,4.2527,4.2442,4.2449,4.2453,4.2726,4.273,4.2733,0,0,0,0,0,0,4.2015,4.2036,4.2214,4.2134,4.2156,4.2199,4.2247,4.2253,4.2284,4.2331,4.2338,4.2293,4.2379,4.2395,4.2485,4.253,4.2452,4.2459,4.2722,4.2727,4.2731,4.277,0,0,0,0,0,0,4.2008,4.2035,4.2074,4.2135,4.2161,4.2294,4.225,4.2257,4.2297,4.2294,4.2355,4.2362,4.2378,4.2474,4.2493,4.2539,4.2465,4.2718,4.2724,4.273,4.2765,4.2775,4.2784,0,0,0,0,0,4.2,4.208,4.2077,4.2098,4.2212,4.2296,4.2311,4.2328,4.23,4.234,4.237,4.236,4.2523,4.2484,4.2504,4.2554,4.2716,4.2723,4.2729,4.276,4.2773,4.2784,0,0,0,0,0,0,4.2023,4.2088,4.2085,4.2188,4.2237,4.2294,4.2345,4.2341,4.2398,4.2393,4.2411,4.2425,4.2515,4.2543,4.2499,4.2653,4.2615,4.2627,4.2632,4.2644,4.2654,4.2645,4.2471,0,0,0,0,0,4.204,4.2105,4.2158,4.2243,4.2268,4.2302,4.234,4.2349,4.24,4.242,4.2456,4.2505,4.2567,4.2607,4.2667,4.2769,4.2781,4.2813,4.2822,4.283,4.2839,4.2893,4.2907,4.2756,4.2756,4.2755,0,0,4.2076,4.212,4.2159,4.2249,4.2288,4.2353,4.232,4.239,4.2438,4.243,4.2517,4.2546,4.2601,4.2697,4.2741,4.2723,4.2884,4.2839,4.2845,4.285,4.2902,4.2916,4.2929,4.276,4.2759,4.2759,0,0,4.2175,4.2215,4.229,4.2329,4.2389,4.2411,4.2429,4.2487,4.2505,4.2593,4.2588,4.2645,4.2751,4.2791,4.2824,4.2936,4.2929,4.2955,4.3005,4.3058,4.307,4.308,4.3119,4.3132,4.2964,4.2964,4.2964,0,4.2212,4.231,4.2328,4.2399,4.2438,4.2435,4.251,4.2547,4.2622,4.2648,4.2627,4.276,4.2797,4.2901,4.2929,4.2957,4.2976,4.2948,4.3067,4.3078,4.3088,4.3124,4.3139,4.2967,4.2966,4.2966,4.2966,0,4.2352,4.242,4.2473,4.2547,4.2591,4.2664,4.2691,4.2734,4.2739,4.2762,4.2851,4.2895,4.2963,4.2988,4.2994,4.3093,4.308,4.3063,4.3025,4.3105,4.3139,4.3154,4.2971,4.297,4.2969,4.2968,0,0,4.2469,4.2551,4.257,4.2602,4.2667,4.2719,4.2791,4.2858,4.2893,4.2945,4.3004,4.3094,4.3078,4.3116,4.3126,4.3172,4.3256,4.3149,4.3151,4.3166,4.3365,4.3377,4.3393,4.3251,4.3254,4.3257,4.336,0,4.2572,4.27,4.2718,4.283,4.2892,4.2889,4.2951,4.2997,4.302,4.3075,4.3101,4.3164,4.3139,4.3162,4.3208,4.3236,4.3296,4.3229,4.3305,4.3307,4.329,4.3412,4.3425,4.3521,4.3374,4.3377,4.3378,0,4.2711,4.2767,4.2885,4.294,4.2967,4.3022,4.3084,4.3138,4.3188,4.3202,4.3244,4.3248,4.332,4.3279,4.3378,4.3332,4.3364,4.3382,4.3386,4.3393,4.3347,4.3421,4.3552,4.3566,4.34,4.3398,4.3397,0,4.2782,4.2887,4.2971,4.3,4.3066,4.3105,4.3134,4.3182,4.322,4.3274,4.3299,4.336,4.3393,4.344,4.3459,4.3428,4.3556,4.3517,4.3567,4.3567,4.3594,4.3592,4.3731,4.3616,4.3616,4.3616,4.3616,0,4.2896,4.2968,4.3004,4.3056,4.3136,4.3155,4.3233,4.3261,4.3303,4.3359,4.336,4.3412,4.3435,4.349,4.3505,4.3583,4.3598,4.361,4.3613,4.361,4.3608,4.363,4.3624,4.362,4.3619,4.3618,4.3618,0,4.2989,4.3017,4.3108,4.3163,4.3178,4.3235,4.3281,4.333,4.3353,4.3423,4.3441,4.3476,4.3541,4.3565,4.3643,4.3653,4.3743,4.3742,4.3727,4.3727,4.3776,4.377,4.3933,4.3955,4.3827,4.3828,4.3829,0,4.3059,4.3115,4.3176,4.3214,4.3244,4.3305,4.3345,4.3365,4.3405,4.3466,4.3508,4.3572,4.3625,4.3728,4.376,4.3819,4.3818,4.3871,4.3827,4.3821,4.3817,4.3813,4.3818,4.3879,4.388,4.3881,4.3882,0,4.3181,4.3191,4.3248,4.331,4.3357,4.3406,4.3454,4.3485,4.3512,4.3557,4.3623,4.3664,4.3744,4.3808,4.3869,4.3897,4.3893,4.3895,4.391,4.3906,4.3895,4.39,4.3748,4.3891,4.3891,4.389,4.3889,4.3889,4.3264,4.3312,4.3362,4.3425,4.3464,4.3508,4.3556,4.3585,4.3641,4.3708,4.3717,4.3787,4.3835,4.3917,4.3948,4.4002,4.3988,4.4009,4.4014,4.4019,4.4022,4.3887,4.4013,4.4013,4.4013,4.4013,4.4013,0,4.3383,4.3415,4.3473,4.354,4.3589,4.3583,4.3635,4.3676,4.3739,4.3784,4.3836,4.3911,4.3972,4.4009,4.407,4.4106,4.4106,4.4121,4.4118,4.4124,4.4032,4.4013,4.412,4.412,4.412,4.412,4.412,4.412,4.3452,4.3533,4.3549,4.3648,4.3679,4.375,4.378,4.382,4.3856,4.394,4.3991,4.4015,4.4056,4.412,4.4175,4.4184,4.4206,4.4222,4.423,4.4142,4.4131,4.4121,4.4102,4.4227,4.4227,4.4317,4.4318,4.4319]}]]